When you browse on this site, cookies collect data to enhance your experience and personalize the content and advertising you see.
Visit our Privacy Policy to learn more. By continuing to use the site, you agree to this use of cookies and data.
  • In Lithuania
  • List of Countries
  • For 7 days
  • Water Temperature
  • Satellite Maps
  • Weather Map
  • Weather Widgets
  • user-avatar
    Login

    Hourly Weather Batina

    Today, 21 February, Thursday

    Time Temperature Precipitation Wind Pressure Humidity
    00:00 +7°C° 0 mm 1 mps 673 mmHg 84%
    01:00 +6°C° 0 mm 1 mps 673 mmHg 85%
    02:00 +6°C° 0 mm 1 mps 673 mmHg 87%
    03:00 +5°C° 0 mm 1 mps 673 mmHg 88%
    04:00 +4°C° 0 mm 0 mps 673 mmHg 88%
    05:00 +4°C° 0 mm 0 mps 674 mmHg 88%
    06:00 +3°C° 0 mm 0 mps 674 mmHg 88%
    07:00 +5°C° 0 mm 0 mps 674 mmHg 78%
    08:00 +8°C° 0 mm 1 mps 675 mmHg 68%
    09:00 +10°C° 0 mm 1 mps 676 mmHg 58%
    10:00 +11°C° 0 mm 1 mps 676 mmHg 52%
    11:00 +12°C° 0 mm 1 mps 677 mmHg 46%
    12:00 +13°C° 0 mm 1 mps 677 mmHg 40%
    13:00 +14°C° 0 mm 2 mps 677 mmHg 39%
    14:00 +14°C° 0 mm 2 mps 677 mmHg 37%
    15:00 +13°C° 0 mm 3 mps 676 mmHg 36%
    16:00 +12°C° 0 mm 3 mps 676 mmHg 41%
    17:00 +11°C° 0 mm 3 mps 676 mmHg 46%
    18:00 +10°C° 0 mm 3 mps 676 mmHg 51%
    19:00 +9°C° 0 mm 2 mps 676 mmHg 58%
    20:00 +8°C° 0 mm 2 mps 676 mmHg 65%
    21:00 +7°C° 0 mm 2 mps 677 mmHg 72%
    22:00 +8°C° 0 mm 1 mps 677 mmHg 77%
    23:00 +7°C° 0 mm 1 mps 677 mmHg 82%

    Tomorrow, 22 February, Friday

    Time Temperature Precipitation Wind Pressure Humidity
    00:00 +6°C° 0 mm 1 mps 676 mmHg 86%
    01:00 +6°C° 0 mm 1 mps 676 mmHg 88%
    02:00 +5°C° 0 mm 1 mps 676 mmHg 89%
    03:00 +5°C° 0 mm 1 mps 676 mmHg 90%
    04:00 +4°C° 0 mm 1 mps 676 mmHg 91%
    05:00 +4°C° 0 mm 1 mps 676 mmHg 91%
    06:00 +4°C° 0 mm 1 mps 675 mmHg 92%
    07:00 +5°C° 0 mm 1 mps 676 mmHg 80%
    08:00 +7°C° 0 mm 1 mps 677 mmHg 69%
    09:00 +9°C° 0 mm 1 mps 678 mmHg 57%
    10:00 +10°C° 0 mm 1 mps 678 mmHg 47%
    11:00 +12°C° 0 mm 2 mps 677 mmHg 36%
    12:00 +13°C° 0 mm 2 mps 677 mmHg 25%
    13:00 +12°C° 0 mm 3 mps 677 mmHg 24%
    14:00 +12°C° 0 mm 3 mps 676 mmHg 23%
    15:00 +13°C° 0 mm 3 mps 676 mmHg 22%
    16:00 +11°C° 0 mm 3 mps 676 mmHg 28%
    17:00 +10°C° 0 mm 3 mps 675 mmHg 34%
    18:00 +9°C° 0 mm 3 mps 675 mmHg 40%
    19:00 +8°C° 0 mm 2 mps 675 mmHg 49%
    20:00 +7°C° 0 mm 2 mps 675 mmHg 58%
    21:00 +6°C° 0 mm 2 mps 675 mmHg 66%
    22:00 +5°C° 0 mm 2 mps 675 mmHg 69%
    23:00 +6°C° 0 mm 1 mps 675 mmHg 72%

    Day after tomorrow, 23 February, Saturday

    Time Temperature Precipitation Wind Pressure Humidity
    00:00 +5°C° 0 mm 1 mps 674 mmHg 76%
    01:00 +5°C° 0 mm 1 mps 674 mmHg 73%
    02:00 +3°C° 0 mm 2 mps 674 mmHg 70%
    03:00 +3°C° 0 mm 2 mps 673 mmHg 67%
    04:00 +3°C° 0 mm 2 mps 673 mmHg 70%
    05:00 +2°C° 0 mm 2 mps 674 mmHg 73%
    06:00 +2°C° 0 mm 2 mps 674 mmHg 77%
    07:00 +3°C° 0 mm 2 mps 674 mmHg 68%
    08:00 +5°C° 0 mm 2 mps 675 mmHg 60%
    09:00 +5°C° 0 mm 3 mps 676 mmHg 51%
    10:00 +7°C° 0 mm 3 mps 676 mmHg 49%
    11:00 +8°C° 0 mm 3 mps 676 mmHg 47%
    12:00 +10°C° 0 mm 4 mps 676 mmHg 44%
    13:00 +9°C° 0 mm 5 mps 676 mmHg 43%
    14:00 +10°C° 0 mm 6 mps 675 mmHg 41%
    15:00 +10°C° 0 mm 7 mps 675 mmHg 40%
    16:00 +9°C° 0 mm 7 mps 675 mmHg 47%
    17:00 +7°C° 0 mm 6 mps 675 mmHg 54%
    18:00 +6°C° 0 mm 5 mps 675 mmHg 61%
    19:00 +5°C° 0 mm 4 mps 675 mmHg 66%
    20:00 +4°C° 0 mm 3 mps 675 mmHg 72%
    21:00 +5°C° 0 mm 2 mps 675 mmHg 77%
    22:00 +4°C° 0 mm 2 mps 675 mmHg 76%
    23:00 +4°C° 0 mm 2 mps 675 mmHg 75%

    24 February, Sunday

    Time Temperature Precipitation Wind Pressure Humidity
    00:00 +4°C° 0 mm 2 mps 675 mmHg 74%
    01:00 +3°C° 0 mm 2 mps 674 mmHg 76%
    02:00 +2°C° 0 mm 3 mps 674 mmHg 78%
    03:00 +2°C° 0 mm 3 mps 674 mmHg 80%
    04:00 +2°C° 0 mm 3 mps 674 mmHg 83%
    05:00 +1°C° 0 mm 3 mps 674 mmHg 85%
    06:00 +1°C° 0 mm 3 mps 674 mmHg 88%
    07:00 +2°C° 0 mm 5 mps 674 mmHg 78%
    08:00 +3°C° 0 mm 7 mps 675 mmHg 68%
    09:00 +5°C° 0 mm 9 mps 676 mmHg 59%
    10:00 +6°C° 0 mm 10 mps 676 mmHg 53%
    11:00 +6°C° 0 mm 11 mps 676 mmHg 47%
    12:00 +7°C° 0 mm 11 mps 676 mmHg 41%
    13:00 +7°C° 0 mm 11 mps 676 mmHg 41%
    14:00 +7°C° 0 mm 11 mps 676 mmHg 41%
    15:00 +7°C° 0 mm 11 mps 675 mmHg 41%
    16:00 +5°C° 0 mm 9 mps 675 mmHg 49%
    17:00 +2°C° 0 mm 8 mps 675 mmHg 57%
    18:00 +2°C° 0 mm 7 mps 675 mmHg 65%
    19:00 +1°C° 0 mm 6 mps 676 mmHg 68%
    20:00 0°C° 0 mm 5 mps 676 mmHg 72%
    21:00 -1°C° 0 mm 5 mps 676 mmHg 76%
    22:00 -1°C° 0 mm 4 mps 676 mmHg 77%
    23:00 -1°C° 0 mm 4 mps 676 mmHg 78%

    25 February, Monday

    Time Temperature Precipitation Wind Pressure Humidity
    00:00 -1°C° 0 mm 3 mps 676 mmHg 79%
    01:00 -1°C° 0 mm 3 mps 676 mmHg 81%
    02:00 -1°C° 0 mm 3 mps 676 mmHg 82%
    03:00 -2°C° 0 mm 3 mps 676 mmHg 84%
    04:00 -1°C° 0 mm 3 mps 676 mmHg 85%
    05:00 -1°C° 0 mm 3 mps 676 mmHg 85%
    06:00 0°C° 0 mm 3 mps 676 mmHg 86%
    07:00 0°C° 0 mm 4 mps 677 mmHg 79%
    08:00 +1°C° 0 mm 5 mps 677 mmHg 72%
    09:00 +3°C° 0 mm 6 mps 678 mmHg 65%
    10:00 +4°C° 0 mm 6 mps 678 mmHg 60%
    11:00 +5°C° 0 mm 6 mps 678 mmHg 54%
    12:00 +7°C° 0 mm 6 mps 678 mmHg 49%
    13:00 +7°C° 0 mm 6 mps 678 mmHg 46%
    14:00 +8°C° 0 mm 6 mps 677 mmHg 43%
    15:00 +9°C° 0 mm 6 mps 677 mmHg 40%
    16:00 +7°C° 0 mm 5 mps 677 mmHg 47%
    17:00 +6°C° 0 mm 4 mps 677 mmHg 54%
    18:00 +5°C° 0 mm 3 mps 676 mmHg 60%
    19:00 +5°C° 0 mm 2 mps 676 mmHg 67%
    20:00 +4°C° 0 mm 2 mps 676 mmHg 73%
    21:00 +4°C° 0 mm 1 mps 676 mmHg 80%
    22:00 +4°C° 0 mm 1 mps 676 mmHg 79%
    23:00 +3°C° 0 mm 1 mps 676 mmHg 77%

    26 February, Tuesday

    Time Temperature Precipitation Wind Pressure Humidity
    00:00 +2°C° 0 mm 2 mps 676 mmHg 76%
    01:00 +2°C° 0 mm 2 mps 676 mmHg 74%
    02:00 +2°C° 0 mm 2 mps 675 mmHg 72%
    03:00 +2°C° 0 mm 2 mps 675 mmHg 70%
    04:00 +2°C° 0 mm 1 mps 675 mmHg 71%
    05:00 +2°C° 0 mm 1 mps 675 mmHg 71%
    06:00 +2°C° 0 mm 1 mps 675 mmHg 72%
    07:00 +4°C° 0 mm 2 mps 676 mmHg 64%
    08:00 +6°C° 0 mm 2 mps 676 mmHg 57%
    09:00 +8°C° 0 mm 2 mps 677 mmHg 49%
    10:00 +9°C° 0 mm 3 mps 677 mmHg 44%
    11:00 +10°C° 0 mm 3 mps 677 mmHg 39%
    12:00 +12°C° 0 mm 4 mps 677 mmHg 34%
    13:00 +12°C° 0 mm 4 mps 677 mmHg 33%
    14:00 +12°C° 0 mm 5 mps 677 mmHg 31%
    15:00 +13°C° 0 mm 5 mps 676 mmHg 30%
    16:00 +11°C° 0 mm 4 mps 676 mmHg 36%
    17:00 +10°C° 0 mm 3 mps 676 mmHg 41%
    18:00 +8°C° 0 mm 2 mps 676 mmHg 47%
    19:00 +7°C° 0 mm 2 mps 675 mmHg 52%
    20:00 +7°C° 0 mm 1 mps 675 mmHg 57%
    21:00 +6°C° 0 mm 1 mps 675 mmHg 62%
    22:00 +6°C° 0 mm 1 mps 675 mmHg 59%
    23:00 +6°C° 0 mm 1 mps 675 mmHg 56%
    Show more